Aurora, IL

11:56 AM CDT on June 22, 2017 (GMT -0500)
Aurora Municipal

Weather History for KARR - December, 2012

Change the Weather History Date:

Saturday, December 15, 2012

  Actual Average Record
Temperature  
Mean Temperature 44 °F 25 °F  
Max Temperature 49 °F 32 °F 56 °F (2011)
Min Temperature 39 °F 17 °F -5 °F (2010)
Degree Days  
Heating Degree Days 21 40  
Month to date heating degree days 376 564  
Since 1 July heating degree days 1883 1978  
Cooling Degree Days 0 0  
Month to date cooling degree days 0 0  
Year to date cooling degree days 1007 655  
Moisture  
Dew Point 42 °F    
Average Humidity 85    
Maximum Humidity 100    
Minimum Humidity 70    
Precipitation  
Precipitation 0.36 in 0.06 in 0.36 in (2012)
Month to date precipitation 0.66 1.18  
Year to date precipitation 23.19 36.08  
Sea Level Pressure  
Sea Level Pressure 29.70 in    
Wind  
Wind Speed 13 mph (SSE)    
Max Wind Speed 23 mph    
Max Gust Speed 31 mph    
Visibility 6 miles    
Events Rain    
T = Trace of Precipitation, MM = Missing Value Source: NWS Daily Summary

Daily Weather History Graph

Daily Weather History Graph

Search for Another Location

Airport or City:

Trip Planner

Search our weather history database for the weather conditions in past years. The results will help you decide how hot, cold, wet, or windy it might be!

Date:

Astronomy

Dec. 15, 2012 Rise Set
Actual Time 7:14 AM CST 4:24 PM CST
Civil Twilight 6:42 AM CST 4:55 PM CST
Nautical Twilight 6:07 AM CST 5:30 PM CST
Astronomical Twilight 5:34 AM CST 6:04 PM CST
Moon 9:05 AM CST (12/15) 7:29 PM CST (12/15)
Length of Visible Light 10h 12m
Length of Day
9h 09m
Waxing Crescent, 8% of the Moon is Illuminated
Dec 15
Waxing Crescent
Dec 19
First Quarter
Dec 28
Full
Jan 4
Last Quarter
Jan 11
New

Hourly Weather History & Observations

Time (CST) Temp. Windchill Dew Point Humidity Pressure Visibility Wind Dir Wind Speed Gust Speed Precip Events Conditions
12:52 AM 39.9 °F 34.5 °F 33.1 °F 77% 30.01 in 10.0 mi SE 8.1 mph - N/A   Overcast
1:52 AM 41.0 °F 34.7 °F 33.1 °F 73% 29.99 in 10.0 mi SSE 10.4 mph - 0.00 in   Overcast
2:52 AM 39.9 °F 34.5 °F 33.1 °F 77% 29.98 in 10.0 mi SSE 8.1 mph - N/A   Mostly Cloudy
3:52 AM 41.0 °F 34.7 °F 32.0 °F 70% 29.98 in 10.0 mi SSE 10.4 mph - N/A   Overcast
4:52 AM 39.9 °F 33.9 °F 34.0 °F 79% 29.95 in 10.0 mi SE 9.2 mph - 0.00 in   Overcast
5:52 AM 39.9 °F 32.5 °F 34.0 °F 79% 29.89 in 8.0 mi ESE 12.7 mph - 0.00 in Rain Light Rain
6:52 AM 41.0 °F 33.1 °F 35.1 °F 79% 29.86 in 10.0 mi SE 15.0 mph - 0.01 in Rain Light Rain
7:52 AM 41.0 °F 32.2 °F 37.0 °F 86% 29.82 in 9.0 mi ESE 18.4 mph - 0.01 in Rain Light Rain
8:52 AM 41.0 °F 32.8 °F 37.9 °F 89% 29.79 in 3.0 mi SE 16.1 mph - 0.05 in Rain Rain
9:02 AM 41.0 °F 33.1 °F 39.2 °F 93% 29.76 in 2.0 mi SE 15.0 mph - 0.02 in Rain Rain
9:11 AM 42.8 °F 35.4 °F 39.2 °F 87% 29.76 in 1.8 mi SE 15.0 mph - 0.04 in Rain Rain
9:18 AM 42.8 °F 35.4 °F 39.2 °F 87% 29.75 in 3.0 mi SE 15.0 mph - 0.04 in Rain Light Rain
9:28 AM 42.8 °F 35.1 °F 39.2 °F 87% 29.74 in 1.8 mi SE 16.1 mph - 0.07 in Rain Rain
9:41 AM 42.8 °F 34.5 °F 39.2 °F 87% 29.74 in 2.0 mi SE 18.4 mph - 0.09 in Rain Light Rain
9:48 AM 42.8 °F 34.3 °F 39.2 °F 87% 29.74 in 2.0 mi SE 19.6 mph 25.3 mph 0.11 in Rain Rain
9:52 AM 42.1 °F 34.2 °F 39.9 °F 92% 29.75 in 2.5 mi SE 16.1 mph 25.3 mph 0.11 in Rain Light Rain
9:58 AM 42.8 °F 33.8 °F 41.0 °F 93% 29.74 in 1.8 mi SE 21.9 mph 26.5 mph 0.02 in Rain Rain
10:47 AM 44.6 °F 37.2 °F 42.8 °F 93% 29.70 in 2.0 mi SSE 17.3 mph 25.3 mph 0.07 in Rain Light Rain
10:48 AM 44.1 °F 35.9 °F 43.0 °F 96% 29.72 in 2.5 mi SSE 19.6 mph 25.3 mph 0.07 in Rain Light Rain
11:52 AM 45.0 °F 37.4 °F 43.0 °F 93% 29.68 in 4.0 mi SSE 18.4 mph 28.8 mph 0.01 in   Overcast
12:52 PM 45.0 °F 38.5 °F 44.1 °F 97% 29.64 in 4.0 mi SSE 13.8 mph - 0.00 in Rain Light Rain
1:52 PM 46.0 °F 39.6 °F 45.0 °F 96% 29.60 in 5.0 mi South 15.0 mph 26.5 mph 0.02 in Rain Light Rain
2:42 PM 46.4 °F 40.4 °F 44.6 °F 93% 29.57 in 2.5 mi South 13.8 mph 24.2 mph 0.02 in Rain Light Rain
2:52 PM 46.9 °F - 46.0 °F 97% 29.58 in 3.0 mi SSE 15.0 mph - 0.02 in Rain Light Rain
3:26 PM 46.4 °F 40.7 °F 46.4 °F 100% 29.57 in 2.5 mi South 12.7 mph - 0.02 in Rain Light Rain
3:52 PM 46.9 °F - 46.0 °F 97% 29.57 in 2.5 mi South 13.8 mph - 0.03 in Rain Light Rain
3:59 PM 46.4 °F 40.7 °F 46.4 °F 100% 29.56 in 3.0 mi South 12.7 mph - 0.01 in Rain Light Rain
4:52 PM 48.0 °F - 46.9 °F 96% 29.58 in 5.0 mi South 9.2 mph - 0.03 in Rain Light Rain
5:29 PM 48.2 °F - 46.4 °F 93% 29.58 in 7.0 mi SSW 11.5 mph - 0.00 in   Overcast
5:40 PM 48.2 °F - 46.4 °F 93% 29.58 in 8.0 mi SSW 12.7 mph - 0.00 in   Overcast
5:52 PM 48.0 °F - 46.9 °F 96% 29.60 in 6.0 mi SSW 10.4 mph - 0.00 in Rain Light Rain
6:52 PM 48.0 °F - 46.9 °F 96% 29.60 in 6.0 mi SSW 9.2 mph - 0.00 in   Overcast
7:52 PM 48.9 °F - 46.9 °F 93% 29.60 in 8.0 mi SSW 11.5 mph - N/A   Overcast
8:38 PM 48.2 °F - 46.4 °F 93% 29.59 in 7.0 mi SSW 9.2 mph - N/A   Overcast
8:48 PM 48.2 °F - 46.4 °F 93% 29.59 in 7.0 mi SSW 10.4 mph - N/A   Overcast
8:52 PM 48.9 °F - 46.9 °F 93% 29.60 in 7.0 mi SW 10.4 mph - N/A   Overcast
9:11 PM 48.2 °F - 46.4 °F 93% 29.59 in 6.0 mi SW 10.4 mph - N/A   Overcast
9:52 PM 48.9 °F - 46.9 °F 93% 29.60 in 8.0 mi SW 9.2 mph - 0.00 in   Overcast
10:52 PM 48.0 °F - 46.0 °F 93% 29.60 in 9.0 mi SW 11.5 mph - N/A   Overcast
11:19 PM 48.2 °F - 46.4 °F 93% 29.59 in 10.0 mi SSW 10.4 mph - N/A   Overcast
11:52 PM 48.0 °F - 46.0 °F 93% 29.60 in 10.0 mi SSW 12.7 mph - N/A   Overcast